sat.trackr.live / text

‹ back to catalog

STARLINK-3788

NORAD 52271 · 2022-041L

PAYLOAD ACTIVE UNKNOWN

§ Identity

Operator
Country
US
Launch date
2022-04-21
Launch site
AFETR
Launch vehicle
Mass (kg)
RCS (m²)

Purposes: comms

External: N2YO · Heavens-Above · Gunter

§ Orbital elements

Epoch: 2026-05-25T03:08:29.049792Z

Period
95.44 min
Inclination
53.2141°
Eccentricity
0.0001286
Mean motion
15.08834870 rev/d
Perigee alt
538.9 km
Apogee alt
540.6 km
Semi-major
6,917.9 km
B*
3.4150e-5
RAAN
125.9624°
Arg perigee
70.9998°
Mean anomaly
289.1133°
Rev number
22,590

§ Raw data

STARLINK-37881 52271U 22041L   26145.13089178  .00000256  00000+0  34150-4 0  99902 52271  53.2141 125.9624 0001286  70.9998 289.1133 15.08834870225902

JSON: /api/v1/satellites/52271 · /tle

For live sub-satellite position, see the globe view (requires WebGL).

§ Visibility from observer

Set your observer location to see the next 7 days of passes ≥ 10°. The values pass through the URL so the page stays shareable.

No JS? Fill the form by hand. The geolocation button needs JavaScript.